Regional Weather Roundup
Issued by NWS

Home | Current Version | Previous Version | Graphics & Text | Print | Product List | Glossary On
Versions: 1 2 3 4 5 6 7 8 9 10 11 12 13 14 15 16 17 18 19 20 21 22 23 24 25 26 27 28 29 30 31 32 33 34 35 36 37 38 39 40 41 42 43 44 45 46 47 48 49 50
000
ASUS43 KBIS 020501
RWRND

NORTH DAKOTA REGIONAL WEATHER ROUNDUP
NATIONAL WEATHER SERVICE BISMARCK ND
1200 AM CDT THU APR 02 2015

NOTE: "FAIR" INDICATES FEW OR NO CLOUDS BELOW 12,000 FEET WITH NO
SIGNIFICANT WEATHER AND/OR OBSTRUCTIONS TO VISIBILITY.


NDZ001>003-009>011-017-020600-
NORTHWEST NORTH DAKOTA

CITY           SKY/WX    TMP DP  RH WIND       PRES   REMARKS
WILLISTON      CLEAR     39  26  59 SW7       29.65F
MINOT          CLEAR     41  23  48 SW13      29.62F
MINOT AFB      CLEAR     35  27  71 SW10      29.61F
$$

NDZ018>021-031>035-040>046-020600-
SOUTHWEST NORTH DAKOTA

CITY           SKY/WX    TMP DP  RH WIND       PRES   REMARKS
BISMARCK       CLEAR     43  23  45 W14       29.72F
DICKINSON      CLEAR     35  21  56 SW14      29.72F
GARRISON         N/A     35  25  66 W10       29.67F
HETTINGER ARPT CLEAR     29  19  66 CALM      29.79F
$$

NDZ004>008-012>016-024-026-027-054-020600-
NORTHEAST NORTH DAKOTA

CITY           SKY/WX    TMP DP  RH WIND       PRES   REMARKS
GRAND FORKS    CLEAR     43  32  65 W12       29.57S
GRND FRKS AFB  CLEAR     43  31  63 NW12      29.58S
DEVILS LAKE    CLEAR     37  28  70 W12       29.58F
$$

NDZ022-023-025-028>030-036>039-047>053-020600-
SOUTHEAST NORTH DAKOTA

CITY           SKY/WX    TMP DP  RH WIND       PRES   REMARKS
FARGO          PTCLDY    45  31  58 W7        29.63R
JAMESTOWN      CLEAR     41  26  55 W12       29.64S
$$




USA.gov is the U.S. government's official web portal to all federal, state and local government web resources and services.